Wind_Speed
2 2 4 4 4 5 4 5 2 5 4 15 30 7 7 4 6 5 6 28 23 25 25 26 24 22 20 19 17 16 15 14 14 14 13 14 15 14 13 12 12 14 15 15 14 14 14 14 14
3 6 5 4 5 3 5 4 5 3 21 28 18 29 6 7 12 6 20 28 25 24 25 25 23 20 18 17 16 16 14 14 13 13 13 13 13 13 12 12 13 14 17 17 16 15 15 15 14
5 6 3 4 4 5 5 3 5 11 19 14 14 14 9 8 7 15 28 28 29 27 25 23 20 18 18 18 16 14 13 13 12 12 12 12 12 12 11 12 14 15 15 16 15 14 14 14 14
4 4 6 4 5 6 6 5 5 13 6 12 20 6 26 21 14 21 27 28 28 27 25 23 21 20 19 17 14 13 12 12 11 11 12 12 12 12 12 14 15 16 17 16 16 16 16 14 14
5 4 4 2 4 5 6 5 9 4 10 17 13 12 34 34 15 19 27 30 28 29 26 24 23 22 19 17 13 12 11 11 11 11 12 13 13 13 13 14 14 15 15 16 16 16 16 15 15
4 4 4 3 5 5 6 7 6 6 11 22 10 19 14 33 22 13 28 31 30 27 27 26 25 22 20 17 14 12 11 11 12 12 12 13 13 13 12 13 14 13 12 13 16 18 17 17 17
6 4 3 4 4 5 4 6 6 5 8 7 17 9 11 33 33 18 32 34 32 30 29 29 27 23 20 17 14 12 11 11 12 12 12 13 13 14 13 15 17 15 12 14 17 19 18 18 18
4 4 3 4 3 6 6 9 17 10 13 17 8 4 16 33 32 16 30 34 33 32 31 30 28 25 22 19 16 13 11 10 11 12 13 14 14 15 13 15 17 14 16 15 17 18 20 20 18
5 4 2 4 4 4 15 6 19 17 13 15 16 17 23 26 26 18 27 33 33 34 34 32 29 26 24 21 19 16 13 12 12 13 14 15 15 16 13 15 15 18 16 16 17 19 20 19 17
4 4 7 5 3 4 8 19 25 7 14 17 22 26 19 25 23 19 28 37 34 33 34 35 32 29 27 25 22 19 17 14 13 14 15 16 16 16 14 17 17 17 18 17 18 19 19 17 18
2 4 4 4 7 6 8 15 17 10 0 19 28 29 33 23 18 16 24 34 35 34 34 36 33 31 29 28 25 23 20 17 16 15 15 16 17 18 16 18 17 14 21 24 21 21 20 19 18
2 3 1 6 9 17 6 12 10 16 20 28 27 27 27 21 20 21 17 31 34 34 35 37 35 33 31 29 28 25 23 21 19 18 17 18 18 20 18 20 17 17 23 24 23 22 20 18 17
3 3 10 15 22 20 18 10 10 22 22 25 27 24 24 27 29 25 25 21 30 37 36 38 36 35 34 33 30 29 27 25 22 21 20 19 18 19 20 20 20 20 24 23 22 21 20 19 19
3 6 13 7 15 11 12 12 7 6 25 31 31 32 32 29 27 30 30 30 25 25 33 37 37 37 36 35 33 31 29 28 26 24 23 22 21 18 19 21 23 21 25 24 23 20 20 19 19
5 4 5 8 16 6 29 3 7 23 25 33 39 38 36 35 32 31 30 33 31 28 29 31 35 37 40 38 37 34 32 30 29 28 26 26 24 21 18 19 23 23 21 26 25 22 20 20 18
5 5 6 7 12 8 15 11 5 19 38 39 33 39 42 48 47 44 35 31 31 34 34 34 35 37 42 43 40 38 37 34 33 31 30 28 27 25 22 20 22 23 22 21 24 24 21 21 19
7 4 5 6 14 7 5 26 19 32 28 37 38 39 39 51 52 50 44 36 31 33 33 37 39 40 39 46 44 40 39 37 35 34 33 31 30 28 27 22 20 23 23 22 24 26 24 23 21
5 5 5 8 5 5 9 25 23 41 25 31 43 45 43 44 57 50 49 47 38 32 31 32 43 40 38 44 47 43 40 39 38 37 36 34 32 31 30 28 23 23 24 24 25 27 26 24 22
4 4 11 10 9 7 8 22 25 32 33 30 36 43 47 46 57 52 46 44 44 37 31 38 38 40 42 43 50 47 44 41 40 38 37 35 34 33 33 31 28 25 26 25 26 28 28 27 24
6 8 9 11 1 12 14 27 22 18 15 28 33 36 42 46 49 50 42 38 39 41 33 33 35 37 41 44 43 50 46 45 42 40 38 37 35 34 34 33 32 30 27 27 28 31 31 29 27
4 5 5 12 21 10 9 12 11 26 20 30 36 37 39 44 46 49 49 42 41 42 35 33 33 33 40 41 44 48 47 45 44 42 39 38 36 36 36 34 33 32 30 29 29 31 33 32 31
4 3 8 12 9 6 10 8 11 14 20 21 35 47 42 39 44 43 45 45 41 39 33 32 29 34 31 40 47 50 52 52 51 48 45 38 36 36 36 35 34 33 32 32 31 31 33 33 32
7 7 11 16 12 2 1 1 10 20 18 16 24 56 50 44 42 43 42 45 42 37 37 31 27 26 27 37 42 52 55 51 50 52 47 42 38 35 35 34 34 32 34 34 32 32 33 34 32
8 6 9 1 2 2 4 2 18 7 10 19 21 41 52 41 35 36 39 42 43 34 37 30 23 16 13 30 36 50 56 53 52 49 49 46 42 35 34 34 33 33 33 35 32 30 30 30 32
7 6 4 5 4 4 4 11 9 15 15 19 21 34 48 45 26 19 24 32 30 22 24 25 26 27 25 20 35 47 49 51 52 54 52 49 42 37 36 36 37 34 33 35 33 35 34 34 34
3 1 3 3 4 11 16 5 6 15 19 30 27 35 51 40 25 22 19 15 3 13 22 25 22 33 28 24 36 45 44 45 48 51 49 50 43 36 36 36 37 32 31 34 34 34 33 34 33
2 1 5 3 9 5 5 7 12 19 23 23 25 31 34 35 31 34 32 21 14 7 8 20 25 14 21 24 32 37 36 41 46 44 41 43 36 27 27 33 33 31 30 31 32 33 33 31 31
3 2 4 2 4 6 3 8 5 22 25 27 24 25 31 37 37 36 37 30 24 16 17 14 21 13 18 14 25 29 27 28 27 32 32 34 28 22 20 25 31 30 29 30 32 33 32 32 30
2 2 2 2 2 3 6 7 6 18 22 25 23 27 28 35 38 32 34 31 27 27 22 28 19 9 16 19 21 17 17 15 18 23 29 29 26 24 25 28 29 26 27 27 28 31 30 31 29
4 4 3 1 3 5 5 7 12 26 23 27 24 26 29 32 40 38 30 33 30 31 32 31 27 16 8 14 20 22 17 12 17 28 26 30 27 26 27 27 27 25 23 25 26 25 28 26 25
Wind_Direction
302 163 108 69 48 56 281 268 284 321 12 330 313 288 235 248 183 216 247 172 171 174 178 181 183 182 182 182 184 190 192 188 186 183 175 167 165 168 174 178 175 169 171 171 170 168 168 164 159
125 130 103 85 88 53 276 280 301 348 319 323 332 333 281 257 224 254 155 161 171 177 176 177 178 179 183 185 185 187 190 191 190 186 184 175 173 178 184 182 178 175 175 174 175 170 166 163 159
128 126 94 93 105 181 232 210 267 307 352 359 336 349 337 316 270 173 160 168 173 176 172 174 173 176 181 179 176 178 181 183 184 184 186 184 182 185 184 176 175 179 178 179 179 173 170 165 163
136 109 73 96 202 245 218 265 297 335 343 9 357 21 327 316 303 181 174 176 175 174 173 172 167 172 175 173 171 172 173 171 174 180 181 184 185 186 181 178 178 181 179 184 181 178 174 168 169
139 102 73 80 258 270 252 263 304 323 306 343 8 322 331 359 300 204 187 179 178 175 174 170 166 163 166 166 167 164 166 164 165 171 178 182 185 186 183 185 185 186 184 185 184 176 173 169 169
84 80 80 201 243 250 278 282 307 313 321 335 359 345 319 345 349 261 193 183 181 179 174 171 168 161 159 162 161 160 160 159 162 169 179 184 187 185 182 188 188 182 182 190 185 173 174 167 165
115 90 193 161 259 301 270 316 316 316 324 322 332 325 306 340 345 299 197 188 183 182 179 176 173 168 161 161 161 161 159 161 166 173 182 187 187 180 188 188 191 191 193 192 180 174 172 162 159
121 93 132 226 221 270 280 311 311 302 309 315 324 312 318 331 337 295 214 196 191 186 185 181 179 174 172 171 167 164 159 164 173 180 184 187 185 184 189 194 197 208 189 179 174 176 170 162 163
124 70 188 233 179 252 306 307 302 312 292 316 309 304 318 325 330 313 221 207 206 194 191 190 187 182 180 182 175 173 170 172 181 187 185 189 191 191 193 191 187 182 184 183 176 179 174 171 159
105 125 217 213 242 267 296 301 307 317 316 307 316 316 323 329 323 325 221 212 215 206 202 200 193 190 188 189 185 182 179 180 187 191 190 192 193 194 196 187 188 191 194 186 179 182 180 180 172
110 193 192 259 300 324 285 298 315 306 322 303 301 311 314 314 309 303 239 220 222 220 214 208 204 199 199 196 193 190 189 186 188 191 192 192 192 196 198 194 195 202 191 188 186 182 185 188 189
27 246 40 301 296 314 277 291 294 288 281 300 299 309 311 304 301 301 283 243 234 231 224 219 214 208 208 208 205 201 198 195 192 191 192 195 195 199 201 199 198 190 178 187 190 191 193 195 197
168 328 315 310 316 319 307 270 263 289 324 334 329 327 314 302 295 288 282 271 251 245 239 230 226 217 215 215 214 208 205 204 197 195 194 197 197 200 203 202 201 194 192 193 196 197 200 201 202
310 303 311 9 351 2 341 294 289 280 339 329 330 325 321 312 306 298 286 272 253 253 254 246 239 231 224 225 227 224 220 212 206 202 200 201 201 200 204 206 205 203 205 204 205 205 207 211 208
297 345 345 19 359 13 348 94 168 341 330 332 322 318 316 311 308 299 293 286 269 256 259 251 247 247 235 228 231 231 229 225 216 211 207 207 205 204 206 208 210 212 211 213 213 211 211 213 210
24 56 11 321 16 356 28 286 342 320 330 313 307 305 303 300 298 293 293 287 283 270 257 255 253 250 243 237 234 234 231 228 226 218 214 212 210 208 207 210 210 213 215 218 213 213 214 215 217
17 324 314 314 338 348 53 293 301 309 308 299 298 294 291 294 293 285 283 282 281 272 263 251 252 251 248 239 237 235 233 230 228 224 220 217 214 212 210 209 210 211 215 218 213 214 216 217 222
305 309 277 290 281 298 284 273 291 297 294 284 287 288 286 284 287 290 284 279 276 274 268 258 253 250 249 236 235 234 233 232 231 228 224 220 219 215 213 211 210 211 212 215 214 214 216 217 225
239 250 278 277 274 299 249 281 288 291 288 281 271 274 280 279 287 286 284 274 276 272 268 257 252 248 243 232 229 229 229 228 228 228 227 224 223 218 215 213 211 212 215 216 214 213 216 215 219
353 302 294 302 212 309 290 288 294 284 286 290 285 276 272 272 276 278 276 271 266 266 267 267 249 244 239 237 234 233 231 229 227 226 224 225 224 221 218 214 213 214 216 218 217 216 215 217 222
270 249 277 286 313 221 280 282 332 306 310 305 300 289 279 273 268 269 271 268 265 259 263 261 254 244 239 240 235 228 227 226 225 224 226 224 221 222 222 219 217 216 218 220 219 218 219 219 220
301 238 278 280 325 302 72 290 315 311 312 309 329 325 300 281 270 263 264 265 257 249 256 258 249 245 240 236 234 231 228 224 228 228 225 222 221 220 221 223 222 222 222 224 224 222 223 222 225
250 284 260 281 276 289 42 139 271 304 297 323 348 330 313 295 273 267 263 265 255 248 249 252 248 241 237 234 235 234 228 231 229 227 222 222 220 222 220 224 226 228 227 228 229 225 224 226 228
270 266 291 75 165 349 226 108 291 298 309 325 347 326 336 316 284 276 274 271 259 238 247 244 221 234 236 231 233 229 229 225 225 225 219 219 220 219 219 224 227 229 232 231 227 230 230 230 233
354 8 343 350 5 262 312 329 254 290 324 330 333 338 338 342 343 314 285 267 255 239 234 214 226 239 256 255 236 229 228 228 229 227 223 215 216 217 225 221 222 227 236 233 229 231 228 229 236
27 42 113 266 308 294 304 230 266 321 336 336 345 353 350 338 1 5 4 9 308 246 238 214 230 231 242 244 224 220 224 225 229 228 226 222 220 219 225 223 221 227 235 236 233 234 235 235 236
242 61 186 221 248 259 255 298 311 0 347 340 345 343 4 350 5 15 26 43 53 65 211 214 220 219 237 235 215 212 220 227 228 229 228 221 217 221 229 225 223 227 233 236 233 234 234 237 237
124 238 21 312 308 309 291 294 328 348 340 342 340 346 8 1 5 12 20 37 69 97 107 138 180 203 249 248 225 212 215 223 230 233 224 215 213 215 222 217 221 228 235 236 233 235 237 239 240
342 27 27 255 216 278 300 326 39 351 345 339 338 356 15 11 13 15 13 14 58 87 97 103 123 185 183 200 208 207 205 194 217 226 227 223 214 215 218 221 218 227 232 234 232 234 238 240 244
181 159 125 54 296 241 260 280 356 343 338 338 348 1 15 22 22 25 13 7 43 68 73 79 96 121 118 176 186 193 217 213 226 241 233 233 223 218 219 216 216 225 227 227 227 233 240 242 241
Height
1498 1499 1500 1502 1515 1520 1520 1509 1500 1496 1494 1493 1488 1488 1485 1480 1479 1490 1466 1468 1475 1479 1482 1486 1489 1490 1491 1492 1493 1496 1497 1498 1498 1500 1503 1506 1508 1511 1512 1514 1516 1517 1519 1521 1523 1525 1528 1529 1531
1498 1499 1501 1503 1524 1532 1522 1508 1503 1500 1497 1488 1484 1481 1479 1476 1471 1469 1467 1470 1475 1478 1482 1485 1488 1490 1491 1492 1492 1494 1496 1497 1498 1500 1503 1506 1508 1510 1512 1514 1516 1518 1519 1521 1523 1525 1528 1529 1531
1498 1499 1501 1513 1531 1530 1522 1501 1501 1495 1492 1489 1486 1479 1480 1476 1473 1468 1468 1470 1473 1476 1479 1483 1486 1489 1491 1491 1492 1493 1495 1495 1498 1500 1503 1506 1508 1510 1512 1515 1517 1518 1520 1522 1525 1526 1528 1530 1531
1498 1500 1506 1518 1520 1514 1508 1498 1495 1492 1489 1491 1491 1487 1486 1481 1476 1472 1469 1472 1474 1476 1478 1479 1482 1488 1491 1491 1492 1493 1494 1495 1498 1501 1503 1506 1508 1510 1512 1514 1516 1518 1520 1522 1525 1527 1528 1530 1532
1497 1499 1515 1519 1517 1509 1500 1495 1494 1496 1491 1490 1491 1489 1483 1480 1475 1473 1472 1472 1473 1475 1478 1480 1482 1484 1488 1490 1492 1492 1493 1495 1497 1501 1503 1506 1508 1510 1512 1514 1516 1518 1520 1522 1524 1527 1529 1530 1532
1497 1501 1519 1524 1517 1505 1495 1493 1494 1493 1492 1490 1490 1487 1483 1481 1477 1475 1476 1473 1475 1477 1478 1481 1483 1482 1485 1488 1490 1491 1492 1494 1497 1500 1503 1506 1508 1511 1513 1514 1516 1518 1521 1523 1525 1526 1529 1529 1532
1497 1507 1517 1518 1512 1504 1494 1492 1493 1493 1492 1492 1490 1488 1483 1479 1477 1477 1475 1475 1474 1476 1478 1481 1484 1484 1484 1487 1489 1490 1491 1493 1496 1499 1502 1505 1508 1511 1512 1514 1516 1517 1520 1522 1525 1527 1529 1531 1533
1498 1503 1514 1512 1511 1507 1493 1491 1491 1492 1492 1491 1490 1487 1483 1479 1477 1474 1477 1476 1476 1476 1478 1480 1482 1483 1485 1487 1488 1490 1491 1492 1495 1498 1501 1504 1507 1510 1512 1513 1515 1517 1519 1522 1525 1526 1529 1530 1534
1497 1511 1518 1508 1506 1499 1493 1491 1487 1490 1490 1490 1488 1486 1485 1480 1477 1473 1474 1477 1479 1476 1476 1478 1480 1482 1484 1487 1487 1489 1490 1492 1494 1498 1500 1503 1506 1508 1510 1512 1514 1516 1519 1522 1524 1527 1529 1531 1533
1498 1511 1508 1502 1499 1498 1495 1492 1488 1489 1487 1485 1483 1483 1482 1480 1476 1473 1472 1474 1477 1477 1478 1479 1478 1481 1482 1485 1486 1487 1489 1491 1493 1496 1499 1502 1504 1507 1510 1511 1514 1517 1519 1522 1525 1527 1527 1530 1533
1499 1504 1501 1498 1497 1496 1494 1490 1489 1486 1486 1484 1479 1476 1477 1476 1475 1472 1471 1472 1474 1476 1477 1479 1480 1481 1481 1483 1484 1485 1487 1489 1492 1495 1498 1500 1502 1506 1508 1511 1513 1515 1517 1520 1523 1526 1528 1531 1533
1500 1498 1498 1497 1495 1494 1491 1489 1486 1483 1481 1479 1477 1475 1473 1473 1473 1473 1472 1471 1471 1473 1475 1477 1478 1479 1482 1482 1483 1484 1484 1486 1489 1492 1496 1498 1500 1504 1507 1510 1512 1514 1517 1520 1523 1525 1528 1530 1534
1498 1498 1497 1496 1493 1489 1486 1487 1485 1478 1476 1477 1474 1472 1471 1471 1470 1470 1470 1469 1469 1470 1472 1474 1475 1476 1478 1479 1481 1482 1483 1484 1487 1490 1493 1496 1498 1501 1505 1508 1511 1514 1517 1520 1522 1525 1528 1529 1533
1498 1497 1495 1494 1491 1487 1484 1480 1481 1476 1475 1472 1471 1469 1468 1466 1466 1465 1464 1465 1464 1465 1466 1470 1472 1474 1474 1476 1477 1480 1481 1483 1485 1487 1490 1493 1496 1499 1502 1506 1509 1513 1516 1519 1522 1524 1527 1529 1532
1496 1497 1495 1492 1490 1487 1479 1474 1475 1472 1473 1473 1470 1466 1463 1461 1461 1459 1458 1458 1459 1459 1460 1459 1463 1468 1470 1470 1472 1475 1478 1480 1482 1484 1487 1490 1493 1496 1500 1503 1507 1510 1514 1517 1520 1523 1526 1528 1531
1498 1502 1508 1494 1493 1490 1490 1469 1467 1474 1471 1464 1464 1461 1455 1449 1449 1450 1451 1451 1450 1452 1453 1454 1454 1455 1460 1463 1465 1468 1472 1475 1478 1481 1484 1487 1490 1494 1497 1500 1503 1507 1511 1514 1517 1521 1523 1526 1529
1510 1517 1511 1504 1497 1497 1498 1474 1455 1472 1472 1460 1455 1450 1447 1436 1434 1434 1439 1441 1441 1442 1444 1444 1445 1446 1449 1453 1458 1462 1466 1469 1472 1476 1479 1483 1486 1490 1493 1496 1500 1503 1507 1511 1514 1518 1521 1524 1527
1518 1517 1508 1507 1500 1496 1497 1480 1465 1459 1467 1461 1449 1442 1437 1433 1419 1422 1424 1428 1431 1431 1433 1435 1438 1437 1440 1444 1450 1456 1460 1464 1466 1470 1474 1478 1481 1486 1489 1493 1496 1499 1503 1506 1510 1514 1518 1521 1525
1511 1512 1510 1503 1496 1496 1493 1476 1461 1456 1452 1449 1444 1437 1429 1424 1414 1414 1412 1413 1418 1421 1422 1424 1425 1426 1431 1434 1439 1446 1450 1455 1459 1464 1468 1472 1476 1480 1484 1488 1492 1495 1498 1502 1506 1511 1514 1517 1521
1510 1512 1506 1493 1491 1494 1482 1465 1453 1448 1444 1440 1433 1427 1420 1412 1408 1404 1404 1406 1405 1408 1410 1411 1414 1417 1421 1425 1429 1436 1443 1448 1453 1457 1461 1466 1470 1475 1478 1482 1486 1490 1493 1497 1501 1504 1508 1513 1516
1510 1510 1506 1500 1482 1485 1481 1461 1445 1432 1433 1429 1422 1415 1408 1400 1394 1393 1392 1392 1394 1397 1400 1401 1405 1408 1411 1416 1422 1428 1435 1441 1445 1451 1455 1458 1464 1468 1472 1477 1482 1485 1488 1491 1495 1499 1503 1507 1512
1513 1501 1501 1496 1499 1495 1484 1488 1448 1433 1430 1422 1413 1408 1395 1387 1380 1377 1377 1379 1380 1383 1388 1390 1394 1399 1400 1405 1411 1415 1420 1427 1432 1440 1445 1451 1456 1461 1467 1471 1476 1479 1483 1486 1490 1495 1498 1502 1506
1507 1499 1494 1489 1493 1493 1484 1492 1455 1438 1427 1419 1416 1412 1390 1374 1367 1362 1362 1364 1368 1372 1375 1380 1384 1389 1390 1396 1401 1406 1411 1419 1426 1430 1438 1444 1448 1454 1460 1465 1470 1474 1478 1482 1486 1490 1493 1496 1501
1501 1495 1487 1486 1490 1489 1476 1481 1447 1440 1429 1418 1412 1407 1384 1364 1355 1350 1351 1353 1354 1360 1365 1371 1375 1378 1381 1386 1391 1395 1403 1410 1417 1421 1429 1435 1440 1446 1453 1459 1464 1468 1472 1476 1481 1486 1489 1492 1495
1502 1500 1503 1491 1484 1478 1462 1471 1445 1433 1426 1422 1412 1402 1381 1365 1351 1343 1344 1343 1344 1349 1355 1359 1364 1371 1375 1381 1384 1389 1396 1403 1408 1413 1419 1426 1431 1439 1445 1451 1457 1461 1465 1469 1475 1479 1482 1486 1490
1507 1508 1524 1538 1497 1483 1464 1466 1447 1430 1428 1420 1413 1400 1386 1370 1362 1351 1345 1338 1334 1342 1349 1353 1356 1363 1371 1375 1379 1385 1391 1395 1403 1408 1413 1418 1425 1432 1438 1444 1450 1455 1459 1463 1468 1472 1476 1480 1484
1510 1511 1505 1524 1500 1495 1465 1453 1436 1434 1430 1420 1410 1398 1386 1376 1365 1357 1347 1342 1340 1341 1344 1348 1352 1358 1368 1372 1376 1380 1382 1389 1398 1405 1410 1416 1422 1427 1432 1438 1444 1449 1453 1456 1461 1464 1469 1473 1477
1505 1504 1519 1513 1510 1490 1466 1454 1446 1442 1432 1422 1409 1401 1393 1383 1371 1362 1354 1350 1347 1345 1345 1348 1347 1354 1364 1366 1372 1376 1381 1390 1396 1403 1406 1411 1416 1421 1427 1433 1439 1443 1447 1450 1454 1458 1463 1467 1471
1509 1515 1510 1508 1506 1496 1478 1452 1452 1448 1440 1429 1415 1408 1399 1392 1381 1371 1365 1363 1358 1351 1350 1348 1351 1363 1371 1371 1372 1378 1384 1390 1398 1404 1407 1409 1411 1417 1422 1428 1434 1438 1441 1445 1448 1452 1457 1461 1465
1501 1502 1505 1512 1508 1492 1487 1462 1447 1449 1442 1435 1423 1416 1408 1401 1391 1382 1377 1373 1366 1359 1356 1354 1360 1363 1368 1370 1373 1380 1382 1384 1394 1402 1406 1410 1410 1413 1418 1423 1428 1433 1436 1439 1443 1447 1451 1455 1458